Terminal Aerodrome Forecast
Issued by NWS

Home | Current Version | Previous Version | Text Only | Print | Product List | Glossary On
Versions: 1 2 3 4 5 6 7 8 9 10 11 12 13 14
000
FTAK31 PANC 251739
TAFAVD
TAF
PAVD 251739Z 2518/2618 VRB03KT P6SM -RA SCT025 OVC045
      TEMPO 2518/2522 5SM -RA BR BKN025 OVC045
     FM252200 25005KT P6SM VCSH SCT045 BKN070
     FM260400 07004KT P6SM SCT070 BKN120
      AMD LTD TO CLD VIS AND WIND=

USA.gov is the U.S. government's official web portal to all federal, state and local government web resources and services.